sat.trackr.live / text

‹ back to catalog

STARLINK-11519 [DTC]

NORAD 62560 · 2025-006G

PAYLOAD ACTIVE UNKNOWN

§ Identity

Operator
Country
US
Launch date
2025-01-10
Launch site
AFETR
Launch vehicle
Mass (kg)
RCS (m²)

Purposes: comms

External: N2YO · Heavens-Above · Gunter

§ Orbital elements

Epoch: 2026-09-21T16:32:32.425152Z

Period
91.67 min
Inclination
43.0028°
Eccentricity
0.0002562
Mean motion
15.70850608 rev/d
Perigee alt
354.7 km
Apogee alt
358.2 km
Semi-major
6,734.6 km
B*
1.2617e-3
RAAN
38.8755°
Arg perigee
300.8909°
Mean anomaly
59.1707°
Rev number
9,742

§ Raw data

STARLINK-11519 [DTC]1 62560U 25006G   26264.68926418  .00164772  00000+0  12617-2 0  99912 62560  43.0028  38.8755 0002562 300.8909  59.1707 15.70850608 97429

JSON: /api/v1/satellites/62560 · /tle

For live sub-satellite position, see the globe view (requires WebGL).

§ Visibility from observer

Set your observer location to see the next 7 days of passes ≥ 10°. The values pass through the URL so the page stays shareable.

No JS? Fill the form by hand. The geolocation button needs JavaScript.